Simultaneous Nadir Overpasses (SNOs) Predictions

Prediction of SNOs between NPP and TERRA Satellite Orbit:

Table of predicted SNOs for the next 14.0 days since TLE Epoch: 11/28/2015
Index Date (NPP) Time (NPP) Lat,Lon (NPP) SZA (NPP ) Date (TERRA) Time (TERRA) Lat,Lon (TERRA) SZA (TERRA ) Distance(km) Time Diff (sec)
1 11/29/2015 17:34:11 68.61, -84.57 90.01 11/29/2015 17:34:52 68.60, -84.61 90.00 2.03 41
2 11/29/2015 18:24:53 -68.51, 82.87 90.09 11/29/2015 18:24:22 -68.49, 82.89 90.11 2.04 31
3 12/02/2015 09:00:34 -69.40,-137.20 88.79 12/02/2015 09:01:42 -69.29,-135.50 88.89 67.84 68
4 12/02/2015 09:51:04 68.55, 31.27 90.37 12/02/2015 09:51:20 68.56, 31.22 90.38 2.32 16
5 12/02/2015 10:41:46 -68.45,-161.28 89.73 12/02/2015 10:40:50 -68.46,-161.27 89.72 1.05 56
6 12/05/2015 01:17:14 -68.65, -20.40 89.17 12/05/2015 01:18:21 -68.63, -20.45 89.19 3.12 67
7 12/05/2015 02:07:58 68.55, 147.05 90.74 12/05/2015 02:07:47 68.56, 147.11 90.76 3.29 11
8 12/05/2015 02:58:34 -68.12, -45.09 89.68 12/05/2015 02:57:22 -68.18, -45.71 89.63 26.74 72
9 12/07/2015 17:34:07 -68.64, 95.38 88.85 12/07/2015 17:34:47 -68.62, 95.43 88.87 3.39 40
10 12/07/2015 18:24:50 68.49, -97.11 91.01 12/07/2015 18:24:14 68.50, -97.08 91.01 1.62 36
11 12/10/2015 09:00:27 69.18, 43.10 91.96 12/10/2015 09:01:37 69.09, 44.27 91.87 47.80 70
12 12/10/2015 09:50:59 -68.54,-148.72 88.69 12/10/2015 09:51:15 -68.55,-148.77 88.68 2.53 16
13 12/10/2015 10:41:43 68.44, 18.72
